User: anonymous   Login
Location: Mladá Boleslav
(50.4134°N, 14.9084°E)
Time: 00:02:12
(UTC+02:00)
Language:

ITAMSAT 1 - Orbit

View from above orbital plane
View from above orbital plane
View from above satellite
View from above satellite

Ground track
Ground track

The orbit data is extracted from the following two-line orbital elements,

1 22826U 93061D   24148.11861596  .00000257  00000-0  11518-3 0  9998
2 22826  98.7842 200.5359 0009936 122.2734 237.9412 14.30875917600135
Epoch (UTC): 27 May 2024 02:50:48
Eccentricity: 0.0009936
inclination: 98.7842°
perigee height: 781 km
apogee height: 796 km
right ascension of ascending node: 200.5359°
argument of perigee: 122.2734°
revolutions per day: 14.30875917
mean anomaly at epoch: 237.9412°
orbit number at epoch: 60013

The dashed part of the orbit path shows where the satellite is in the earth's shadow,  

DLR